SUAASABE

Guest
Details From SUAA - ANGEL S ADAMI
To SABE - Aeroparque Jorge Newbery
Flight Number -
Tags generated
Created
Modified
Stats Distance 107 nm / 199 km
Max Altitude 9,700 ft / 2,957 m
Waypoints 4
Social Downloads 0
Likes 0
Share VATSIM

Download

Looking for another format? Having issues loading an existing format? Contact us
Advertisement - Login to hide

Notes

Basic altitude profile: - Ascent Rate: 2500ft/min - Ascent Speed: 250kts - Cruise Altitude: 35000ft - Cruise Speed: 420kts - Descent Rate: 1500ft/min - Descent Speed: 250kts Options: - Use NATs: yes - Use PACOTS: yes - Use low airways: yes - Use high airways: no

Route

SUAA TIGRE A305 DORVO SABE

ID Type Via Altitude Latitude Longitude Leg Dist Tot Dist Heading (true) Name
O SUAA APT - 0 ft / 0 m -34.78910˚ -56.26470˚ - 0 nm - ANGEL S ADAMI
TIGRE FIX - 7,900 ft / 2,408 m -34.78139˚ -56.71556˚ 22 nm 22 nm 271° / 271° -
DORVO FIX A305 (AWY-LO) 9,700 ft / 2,957 m -34.71611˚ -57.51722˚ 39 nm 61 nm 275° / 276° -
O SABE APT - 0 ft / 0 m -34.55941˚ -58.41575˚ 45 nm 107 nm 282° / 282° Aeroparque Jorge Newbery

Altitude Profile

Advertisement - Login to hide

SUAA

Details ICAO SUAA
Name ANGEL S ADAMI
Region Uruguay
Timezone America/Montevideo (UTC-3.0)
Stats Elevation 174 ft / 53 m (AMSL)
Location -34.789096° -56.264702°
Runways 1
Magnetic Variation 10.654° W

METAR

SUAA 142200Z 28010KT 9999 FEW030 29/15 Q1009

Decode

TAF

TAF TAF SUAA 141730Z 1418/1518 25010KT 9999 FEW030 TX33/1518Z TN18/1509Z BECMG 1422/1500 10015KT BECMG 1504/1506 04010KT BECMG 1514/1516 28005KT BECMG 1516/1518 20010KT

Decode

Departure Runways

ID Width Length Bearing (true) Bearing (mag) Surface Threshold Offset Overrun Length
18 75 ft / 23 m 4,194 ft / 1,278 m 176.77° 187.42° Concrete 0 ft / 0 m 0 ft / 0 m
36 75 ft / 23 m 4,194 ft / 1,278 m 356.77° 7.42° Concrete 0 ft / 0 m 0 ft / 0 m

SABE

Details ICAO SABE (AEP)
Name Aeroparque Jorge Newbery
Region Argentina
Timezone Unknown (UTC+0.0)
Stats Elevation 17 ft / 5 m (AMSL)
Location -34.559414° -58.415749°
Runways 1
Magnetic Variation 8.981° W

METAR

SABE 142300Z 25004KT 170V310 9999 FEW045 31/09 Q1009

Decode

TAF

TAF SABE 141700Z 1418/1518 26015KT CAVOK TX33/1518Z TN22/1509Z BECMG 1421/1423 20010KT BECMG 1510/1512 08005KT 9999 SCT010 BECMG 1513/1515 04010KT

Decode

Destination Runways

ID Width Length Bearing (true) Bearing (mag) Surface Threshold Offset Overrun Length
13 131 ft / 40 m 6,882 ft / 2,098 m 123.87° 132.85° Concrete 0 ft / 0 m 791 ft / 241 m
31 131 ft / 40 m 6,882 ft / 2,098 m 303.86° 312.84° Concrete 991 ft / 302 m 0 ft / 0 m

Approach Navaids

Runway Type Ident Frequency Range Bearing (true) Bearing (mag) Slope Elevation
13 Localiser AE 109.50 MHz 18 nm / 33 km 123.95° 132.93° - 17 ft / 5 m (AMSL)
13 Glidescope AE 109.50 MHz 10 nm / 19 km 124.47° 133.45° 3.00° 17 ft / 5 m (AMSL)
13 DME AE 109.50 MHz 18 nm / 33 km - - - 17 ft / 5 m (AMSL)

Popular Alternatives